www.pogodaiklimat.ru

Погода и климат >> Архив погоды >> Россия >> Красноярский край >> Норильск


АРХИВ ПОГОДЫ в Норильске

Время (UTC), дата Ветер
(напр.,м/с)
 
Видим.   Явления Облачность Т
(С)
Тd
(С)
f
(%)
Тe
(С)
Тes
(С)
Комфортность P
(гПа)
Po
(гПа)
Тmin
(С)
Tmax
(С)
R
(мм)
R24
(мм)
S
(см)
18 18.05 Ю 2 50 км 6/4 600 м
[Sc Ac trans]
-1.2 -6.3 68 -5 -5 по сезону 1018.7 1010.5
21 18.05 ЮВ 2 50 км 8/5 600 м
[Sc Ac lent Ci]
-8.2 -8.1 100 -13 -13 по сезону 1018.0 1009.7
00 19.05 ЮВ 4 50 км 8/0
[Ci]
-0.2 -6.4 63 -5 -4 тепло 1017.0 1008.8 -2.8 67
03 19.05 ЮВ 4 50 км 3/0
[Ci fib]
+1.7 -4.8 62 -3 +2 тепло 1015.3 1007.2
06 19.05 ЮВ 3 50 км ясно +3.9 -3.3 59 +1 +9 опасность
простуды
1014.0 1005.6
09 19.05 ЮВ 2 50 км ясно +5.3 -3.2 54 +3 +11 опасность
простуды
1012.7 1004.4
12 19.05 Ю 1 50 км 4/0
[Ci fib]
+5.9 -2.7 54 +5 +8 тепло 1011.4 1003.5 +6.0
15 19.05 СЗ 1 50 км 4/0
[Ci fib]
+1.2 -2.6 76 -0 -0 тепло 1010.8 1002.7
18 19.05 С 1 50 км 4/0 2000 м
[Ac lent Ci fib]
-3.4 -6.2 81 -6 -6 по сезону 1009.3 1001.1
21 19.05 СЗ 3 50 км 3/0
[Ci fib]
-5.6 -8.2 82 -11 -11 по сезону 1007.5 999.2
00 20.05 СЗ 4 50 км 3/3 600 м
[Sc Ac trans]
-7.4 -10.0 82 -14 -13 прохладно 1006.6 998.2 -7.5 57
03 20.05 штиль 0 50 км ?/? -5.6 -8.6 79 -6 -6 по сезону 1004.8 996.4
06 20.05 штиль 0 50 км ?/? -0.9 -4.8 75 -2 -2 тепло 1002.9 994.9
09 20.05 штиль 0 50 км ?/? +1.0 -2.9 75 0 0 тепло 1002.2 994.2
12 20.05 З 10-12
{12}
50 км 3/0 2000 м
[Ac trans]
-1.8 -4.6 81 -10 -10 прохладно 1001.4 993.3 +1.0
15 20.05 З 6
{14}
50 км 9/6 600 м
[Sc Ac trans]
-4.0 -7.0 80 -11 -11 по сезону 1000.8 992.7
18 20.05 З 5
{10}
50 км 8/4 600 м
[Sc Ac trans]
-5.8 -8.8 79 -13 -13 прохладно 1000.1 991.9
21 20.05 З 5 50 км 8/4 600 м
[Sc Ac trans Ci]
-7.2 -10.2 79 -15 -15 прохладно 998.9 990.6
00 21.05 З 4 4000 м слаб. ливневой снег 10/10 600 м
[Cb cap]
-5.7 -7.9 84 -12 -12 по сезону 997.8 989.6 -7.3 0.4
03 21.05 З 3 4000 м слаб. ливневой снег 10/10 600 м
[Cb cap]
-4.8 -7.2 83 -10 -10 по сезону 997.6 989.3
06 21.05 З 6 4000 м слаб. ливневой снег 10/10 600 м
[Cb cap]
-2.0 -4.1 86 -9 -9 прохладно 997.8 989.6
09 21.05 З 5-10
{10}
50 км {ливн. осадки} 10/6 600 м
[Sc Ac trans]
-1.2 -3.8 82 -8 -7 по сезону 997.8 989.7
12 21.05 З 7-10
{10}
50 км {ливн. осадки} 9/0 2000 м
[Ac trans Ci fib]
-1.7 -4.4 82 -9 -9 прохладно 998.4 990.3 -1.2 1
15 21.05 З 7-10
{12}
50 км 8/4 600 м
[Sc Ac As]
-2.8 -5.1 84 -11 -11 прохладно 997.9 989.8
18 21.05 З 7-11
{11}
50 км 6/4 600 м
[Sc Ac trans]
-4.6 -7.0 83 -13 -13 прохладно 997.6 989.5
21 21.05 З 6
{12}
50 км 6/4 600 м
[Sc Ac trans]
-5.5 -7.7 84 -13 -13 прохладно 996.9 988.7
00 22.05 З 7-10
{12}
50 км 8/6 600 м
[Sc Ac trans Ci fib]
-5.5 -8.1 82 -14 -14 холодно 996.4 988.2 -5.7 50
03 22.05 З 8-12
{12}
50 км 8/4 600 м
[Sc Ac trans Ci fib]
-3.9 -6.5 82 -12 -12 прохладно 995.4 987.3
06 22.05 З 7-11
{13}
50 км 6/0 2000 м
[Ac trans Ci fib]
-3.0 -5.7 82 -11 -9 прохладно 995.5 987.4
09 22.05 З 7-11
{12}
50 км 10/0
[Cs]
-3.3 -6.1 81 -11 -9 холодно 996.4 988.3
12 22.05 З 8-12
{13}
50 км 9/0 2000 м
[Ac lent Cs]
-3.5 -6.0 83 -12 -12 холодно 996.4 988.3 -2.9
15 22.05 З 8-12
{13}
50 км 8/0 2000 м
[Ac lent Ci fib]
-4.3 -7.3 80 -13 -13 холодно 996.4 988.3
18 22.05 З 8-13
{13}
50 км 8/0 2000 м
[Ac trans]
-5.4 -7.9 83 -14 -14 холодно 996.2 988.0
21 22.05 З 9-14
{14}
50 км 9/4 600 м
[Sc Ac trans]
-5.8 -8.4 82 -15 -15 холодно 995.6 987.4
00 23.05 З 8-12
{14}
50 км 9/6 600 м
[Sc Ac trans]
-5.0 -7.4 83 -14 -14 холодно 996.2 988.0 -6.3 50
03 23.05 З 8-10
{13}
50 км 10/4 600 м
[Sc As trans Cs]
-3.0 -5.4 83 -11 -11 прохладно 996.6 988.5
06 23.05 З 7-10
{10}
50 км 10/6 600 м
[Sc As trans Cs]
-1.8 -4.9 79 -9 -9 прохладно 996.6 988.5
09 23.05 СЗ 8-12
{13}
4000 м слаб. ливневой снег 10/10 600 м
[Cb cap]
-3.4 -5.5 85 -12 -12 холодно 997.7 989.4
12 23.05 СЗ 7-11
{14}
1000 м ливневой снег 10/10 600 м
[Cb cap]
-4.6 -6.2 89 -13 -13 очень
холодно
999.4 991.3 -1.6 8
15 23.05 З 10-14
{17}
1000 м ливневой снег {метель} 10/10 600 м
[Cb cap]
-5.0 -6.7 88 -15 -15 очень
холодно
999.4 991.2
18 23.05 СЗ 8-12
{15}
2000 м слаб. ливневой снег {метель} 10/10 600 м
[Cb cap]
-5.1 -6.5 90 -14 -14 холодно 1000.5 992.3
21 23.05 СЗ 7-11
{12}
20 км {ливн. осадки, метель} 10/8 600 м
[Sc Ac und]
-5.3 -7.1 87 -14 -14 холодно 1001.6 993.4
00 24.05 З 5
{11}
50 км {ливн. осадки, метель} 10/8 600 м
[Sc Ac und]
-5.7 -7.5 87 -13 -13 холодно 1003.7 995.4 -5.8 0.6 51
03 24.05 З 5 4000 м слаб. ливневой снег 10/10 600 м
[Cb cap]
-4.5 -6.8 84 -12 -12 холодно 1005.0 996.8
06 24.05 З 2 50 км {ливн. осадки} 10/8 600 м
[Sc Ac As]
-1.8 -4.9 79 -6 -5 по сезону 1006.7 998.5
09 24.05 ЮВ 3 50 км 8/5 600 м
[Sc Ac trans]
-0.9 -4.8 75 -6 -4 по сезону 1008.3 1000.1
12 24.05 В 5 50 км 6/0 2000 м
[Ac trans]
+0.2 -3.3 77 -6 -5 по сезону 1008.7 1000.6 +0.5 0.0
15 24.05 В 7 50 км 4/4 600 м
[Sc]
-1.4 -4.7 78 -9 -9 прохладно 1008.1 999.9
18 24.05 В 8-11
{12}
20 км 9/8 600 м
[Sc Ac As]
-2.8 -6.2 77 -11 -11 прохладно 1007.8 999.6
21 24.05 В 8-12
{13}
20 км 9/6 600 м
[Sc Ac trans]
-1.4 -4.7 78 -9 -9 по сезону 1006.9 998.7
00 25.05 В 6-11
{13}
50 км 8/5 600 м
[Sc Ac trans Ci]
-0.2 -4.8 71 -7 -6 по сезону 1005.9 997.8 -3.3 49
03 25.05 ЮВ 9-13
{13}
50 км 8/0 2000 м
[Ac trans Ci fib]
+1.5 -4.0 67 -6 -5 по сезону 1003.8 995.7
06 25.05 ЮВ 7
{14}
50 км 10/6 600 м
[Sc Ac As]
+2.4 -2.5 70 -4 -3 по сезону 1002.7 994.7
09 25.05 ЮВ 9-12
{13}
50 км {ливн. осадки} 10/8 600 м
[Sc Ac As]
+4.0 -0.9 70 -2 -2 по сезону 1001.1 993.2
12 25.05 ЮВ 9-12
{14}
10 км слаб. ливневой дождь 10/10 600 м
[Cb cap]
+3.4 -0.7 74 -3 -3 по сезону 1000.9 993.0 +4.1 0.0
15 25.05 В 5
{12}
10 км слаб. ливневой дождь 10/10 600 м
[Cb cap]
+3.2 +0.8 84 -2 -2 по сезону 1001.3 993.4

 

Местоположение метеостанции Норильск (Красноярский край, Россия): широта 69.33 долгота 88.30 высота над уровнем моря 65 м.

В архиве по умолчанию представлена погода в Норильске за последнюю неделю. Архивные данные за месяц целиком и за предыдущие месяцы, начиная с января 2011 года, Вы можете получить, выбрав интересующий диапазон дат из раскрывающегося списка и нажав кнопку "Ввод!".


*Определитесь, кто Вы:
робот инопланетянин человек

Внимание! Время в таблицах - всемирное. Для получения местного времени необходимо прибавить поправку, которая равна 7 ч.

Смотрите также архив погоды в соседних городах и на ближайших метеорологических станциях:

Погода в Потапово (Красноярский край, Россия) (110 км)
Погода в Снежногорске (Красноярский край, Россия) (138 км)
Погода в Крестах Таймырских (Красноярский край, Россия) (181 км)
Погода в Горбиачине (Красноярский край, Россия) (207 км)
Погода в Карауле (Красноярский край, Россия) (215 км)
Погода в Игарке (Красноярский край, Россия) (219 км)
Погода в Светлогорске (Красноярский край, Россия) (265 км)
Погода в Волочанке (Красноярский край, Россия) (297 км)
Погода в Курейке (Красноярский край, Россия) (321 км)
Погода в Советской Речке (Красноярский край, Россия) (336 км)

Пояснения к столбцам:

Ветер - указаны скорость ветра в м/с - средняя за 10 мин, порывы в срок и между сроками (в фигурных скобках) и направление, откуда дует ветер: С - северный, СВ - северо-восточный, В - восточный, ЮВ - юго-восточный, Ю - южный, ЮЗ - юго-западный, З - западный, СЗ - северо-западный.
Видимость - горизонтальная дальность видимости в метрах или километрах. При видимости от 1 до 10 км при отсутствии осадков обычно наблюдается дымка, при ухудшении видимости до 1 км и менее - туман. В сухую погоду видимость может ухудшаться дымом, пылью или мглою.
Явления - указаны атмосферные явления, наблюдавшиеся в срок или в последний час перед сроком; фигурными скобками обозначены явления, наблюдавшиеся между сроками (за 1-3 часа до срока); квадратными скобками обозначены град или гололедные отложения с указанием их диаметра в мм.
Облачность - указаны через наклонную черту общая и нижняя облачность в баллах и высота нижней границы облаков в метрах; квадратными скобками обозначены формы облаков: Ci - перистые, Cs - перисто-слоистые, Cc - перисто-кучевые, Ac - высококучевые, As - высокослоистые, Sc - слоисто-кучевые, Ns - слоисто-дождевые, Cu - кучевые, Cb - кучево-дождевые. Подробнее классификацию облаков см. в Атласе облаков (PDF).
T - Температура воздуха - температура, измеренная на высоте 2 м над землей.
Td - Температура точки росы - температура, при понижении до которой содержащийся в воздухе водяной пар достигнет насыщения.
f - Относительная влажность воздуха - влажноcть воздуха, измеренная на высоте 2 м над землей.
Te - Эффективная температура - температура, которую ощущает одетый по сезону человек в тени. Характеристика душности погоды. При расчете учитывается влияние влажности воздуха и скорости ветра на теплоощущения человека.
Tes - Эффективная температура на солнце - температура, которую ощущает человек, с поправкой на солнечный нагрев. Характеристика знойности погоды. Зависит от высоты солнца над горизонтом, облачности и скорости ветра. Ночью, в пасмурную погоду, а также при ветре 12 м/с и более поправка равна нулю.
P - Атмосферное давление - приведенное к уровню моря атмосферное давление.
Po - Атмосферное давление - измеренное на уровне метеостанции атмосферное давление.
Tmin - Минимальная температура - минимум температуры воздуха на высоте 2 м над землей.
Tmax - Максимальная температура - максимум температуры воздуха на высоте 2 м над землей.
R - Количество осадков - Количество выпавших осадков за период времени, мм. При наведении курсора мыши на число - период времени, за который выпало указанное количество осадков.
R24 - Количество осадков - Количество выпавших осадков за 24 часа, мм.
S - Снежный покров - Высота снежного покрова, см. При наведении курсора мыши на число - состояние снежного покрова и степень покрытия местности в баллах.